User: anonymous   Login
Location: Caltech
(34.1382°N, 118.1253°W)
Time: 09:53:45
(UTC-07:00)
Language:

Oscar 16 - Orbit

View from above orbital plane
View from above orbital plane
View from above satellite
View from above satellite

Ground track
Ground track

The orbit data is extracted from the following two-line orbital elements,

1 20439U 90005D   15122.46134716  .00000105  00000-0  54915-4 0  9999
2 20439 098.5384 059.3340 0009802 299.5358 125.4210 14.32531438320195
Epoch (UTC): 02 May 2015 11:04:20
Eccentricity: 0.0009802
inclination: 98.5384°
perigee height: 776 km
apogee height: 790 km
right ascension of ascending node: 59.3340°
argument of perigee: 299.5358°
revolutions per day: 14.32531438
mean anomaly at epoch: 125.4210°
orbit number at epoch: 32019

The dashed part of the orbit path shows where the satellite is in the earth's shadow,  

DLR